Location: Caronte
(48.8667°N, 2.4000°E)
Time: 07:21:38
(UTC+00:00)

Daily predictions for brighter satellites

Satellite Brightness Start Highest point End
(mag) Time Altitude Azimuth Time Altitude Azimuth Time Altitude Azimuth
Cosmos 1844 Rocket 3.7 16:21:50 10° NW 16:27:14 52° WSW 16:32:38 10° S
Cosmos 1340 2.8 16:27:44 10° NNW 16:31:32 81° W 16:35:19 10° S
Cosmos 1500 3.9 16:30:20 10° N 16:33:43 30° ENE 16:37:05 10° SE
RESURS DK-1 3.0 16:30:17 10° S 16:34:08 40° ESE 16:38:01 10° NE
YAOGAN 6 4.4 16:34:18 10° E 16:35:42 12° ENE 16:37:08 10° NE
Cosmos 1943 Rocket 4.0 16:34:00 10° N 16:36:31 13° NNE 16:39:02 10° NE
Okean O Rocket 1.9 16:33:13 10° S 16:37:33 75° WSW 16:41:56 10° NNW
IRS-1C Rocket 4.2 16:33:13 10° SE 16:38:19 54° ENE 16:43:28 10° N
ISS -3.6 16:36:32 10° WNW 16:39:53 76° SSW 16:43:15 10° ESE
Cosmos 1602 4.2 16:37:17 10° NNW 16:41:09 65° W 16:45:00 10° S
Envisat 3.8 16:37:32 10° ESE 16:41:53 29° ENE 16:46:15 10° N
SMAP 3.3 16:38:23 10° SE 16:42:51 49° ENE 16:47:21 10° N
SJ-7 4.4 16:39:20 10° SSE 16:43:32 83° ENE 16:47:42 10° NNW
Feng Yun 1-1 Rocket 4.2 16:43:26 10° SSE 16:48:43 61° ENE 16:54:03 10° N
STARLINK-67 3.0 16:46:07 10° W 16:48:50 49° NNW 16:51:04 14° ENE
H-2A R/B 2.9 16:45:57 10° SE 16:49:29 44° ENE 16:53:01 10° N
ALOS 3.6 16:47:18 10° S 16:51:46 44° W 16:56:15 10° NNW
Cosmos 1707 Rocket 3.6 16:47:43 10° S 16:52:11 84° E 16:56:42 10° N
Cosmos 1992 Rocket 4.1 16:47:37 10° NNW 16:52:45 54° ENE 16:57:52 10° SE
Okean-O 3.2 16:49:52 10° SE 16:53:54 36° ENE 16:57:57 10° N
Cosmos 2279 Rocket 4.1 16:48:01 10° N 16:54:19 84° W 17:00:34 10° S
COBE Rocket 4.2 16:50:21 10° NNE 16:54:46 41° E 16:59:12 10° SSE
Cosmos 304 Rocket 4.4 16:50:27 10° NNW 16:55:13 62° WSW 16:59:57 10° S
Cosmos 1536 3.4 16:51:32 10° N 16:55:15 35° ENE 16:58:57 10° SE
ATLAS 3B R/B 4.0 16:50:00 10° NW 16:56:19 45° WSW 17:02:47 10° S
CZ-4B R/B 3.4 16:53:43 10° N 16:56:49 30° WNW 16:59:54 10° SW
BREEZE-M R/B 3.2 16:51:07 10° W 16:57:52 84° N 17:00:45 15° E
COSMOS 2428 2.7 16:52:15 10° SSW 16:57:55 82° ESE 17:03:40 10° NNE
USA 267 3.6 16:51:57 10° SE 16:58:29 71° SW 17:05:02 10° WNW
Meteor 1-5 Rocket 4.1 16:55:48 10° N 17:01:25 82° ENE 17:06:48 10° SSE
Shenzhou-11 Module 3.8 17:00:02 10° SW 17:02:17 23° S 17:04:31 10° SE
NOSS 3-4 (A) 3.8 16:56:46 10° SW 17:02:46 65° NW 17:09:10 10° NE
NOSS 3-4 (C) 3.8 16:56:52 10° SW 17:02:53 65° NW 17:09:16 10° NE
STARLINK-46 2.4 17:02:23 10° WSW 17:05:02 76° SSE 17:06:36 22° ENE
Cosmos 292 Rocket 4.2 17:00:52 10° N 17:05:28 40° ENE 17:10:02 10° SE
Lacrosse 5 rocket 1.5 17:04:17 10° SW 17:08:32 63° SE 17:11:25 18° ENE
Cosmos 1908 Rocket 4.0 17:05:39 10° N 17:09:47 37° ENE 17:13:51 10° SE
AQUARIUS 4.1 17:05:28 10° SSE 17:09:56 79° ENE 17:14:28 10° NNW
Genesis I 4.0 17:07:43 10° NNW 17:11:17 32° NE 17:13:36 17° E
CZ-4 R/B 2.3 17:08:49 10° ESE 17:11:59 24° ENE 17:15:07 10° N
COSMO-SKYMED 1 3.7 17:11:25 16° NE 17:13:41 24° E 17:17:15 10° SSE
Aureole 1 Rocket 3.9 17:12:16 10° SE 17:13:53 16° ESE 17:13:53 16° ESE
Nadezhda 4 Rocket 4.0 17:10:06 10° S 17:16:20 64° E 17:22:35 10° NNE
SL-4 R/B 1.8 17:12:55 10° WSW 17:16:40 82° NNW 17:19:09 22° ENE
PSLV R/B 4.1 17:13:09 10° NNE 17:17:19 78° WNW 17:21:27 10° SSW
Cosmos 1666 3.0 17:14:44 10° N 17:18:18 39° ENE 17:21:49 10° SE
NOSS 7 (D) 4.0 17:15:44 10° NW 17:18:41 78° NE 17:21:59 10° SE
YAOGAN 1 3.4 17:19:33 10° ESE 17:23:14 28° ENE 17:26:56 10° N
FengYun 1-2 T 4.4 17:18:00 10° SE 17:23:15 49° ENE 17:28:32 10° N
Ariane Rocket 4.5 17:26:20 17° NE 17:26:20 17° NE 17:28:41 10° NNE
Cosmos 2278 Rocket 2.5 17:20:31 10° NNW 17:26:11 72° WSW 17:31:47 10° SSE
Okean 1-7 3.8 17:27:56 10° SSE 17:31:45 31° E 17:32:59 26° ENE
Cosmos 2360 Rocket 3.9 17:27:35 10° W 17:32:18 26° NW 17:37:04 10° NNE
Cosmos 1733 Rocket 3.9 17:30:15 10° NNW 17:34:31 52° W 17:38:47 10° S
Cosmos 2026 Rocket 4.2 17:33:02 10° SSE 17:38:41 44° E 17:44:23 10° NNE
Cosmos 2369 Rocket 3.3 17:35:15 10° N 17:39:37 22° NE 17:39:54 22° NE
ATLAS 2AS CENTAUR R/B 3.9 17:33:29 10° WSW 17:41:05 44° NNW 17:47:23 15° NE
SL-16 R/B 2.9 17:37:43 10° SSE 17:42:39 32° ESE 17:44:01 28° E
SeaSat 1 3.8 17:45:13 20° NNE 17:45:13 20° NNE 17:48:18 10° N
NOAA 12 4.3 17:41:25 10° S 17:46:43 74° WSW 17:52:02 10° NNW
Cosmos 2333 Rocket 3.2 17:44:11 10° SW 17:49:40 45° NW 17:54:57 11° NNE
CZ-4 R/B 4.3 17:46:18 10° SSE 17:50:26 67° ENE 17:54:36 10° N
BREEZE-M DEB (TANK) 2.6 17:47:30 10° W 17:51:58 54° S 17:52:48 38° SE
Cosmos 2237 Rocket 2.2 17:48:01 10° SSW 17:53:44 89° ESE 17:57:41 21° NNE
Cosmos 1812 3.9 17:50:13 10° SSW 17:53:54 43° WNW 17:57:39 10° N
Sich 1 Rocket 3.6 17:56:59 10° N 18:01:20 54° ENE 18:05:38 10° SSE
Cosmos 921 Rocket 2.8 17:57:09 10° NNW 18:01:24 67° ENE 18:04:17 20° SSE
SKYMED 2 3.4 18:00:06 32° NNE 18:02:04 72° ESE 18:06:24 10° S
STARLINK-29 4.3 17:59:11 10° SSW 18:01:54 31° SSE 18:01:54 31° SSE
Cosmos 1782 Rocket 3.4 18:00:01 10° N 18:04:24 76° E 18:08:43 10° SSE
NOSS 0 Rocket 4.2 17:59:17 10° SW 18:05:28 68° WNW 18:10:05 19° NNE
Cosmos 1627 Rocket 4.3 17:59:39 10° S 18:05:44 73° E 18:11:52 10° NNE
USA 215 3.6 18:02:28 27° NE 18:05:57 56° NNW 18:12:19 10° W
Cosmos 2251 Rocket 4.2 18:01:24 10° SW 18:06:35 54° WNW 18:10:49 15° NNE
Cosmos 1655 Rocket 4.5 18:01:04 10° SSE 18:06:27 36° E 18:06:27 36° E
Cosmos 2219 Rocket 3.6 18:03:09 10° WSW 18:08:16 35° NW 18:12:52 13° NNE
YAOGAN 6 2.9 18:05:12 10° S 18:08:43 65° W 18:12:17 10° NNW
RESURS DK-1 4.2 18:08:46 10° WSW 18:12:17 27° NW 18:14:31 17° N
Cosmos 2195 Rocket 4.4 18:09:08 10° S 18:15:21 89° W 18:21:42 10° N
Cosmos 614 Rocket 3.9 18:11:14 10° S 18:16:11 56° ESE 18:16:22 55° E
ISS -1.0 18:13:57 10° W 18:16:13 17° SW 18:18:22 11° S
Cosmos 1703 Rocket 3.6 18:12:38 10° SSW 18:17:06 79° W 18:19:20 30° N
Envisat 4.1 18:15:54 10° S 18:20:45 44° W 18:25:37 10° NNW
ATLAS 5 CENTAUR R/B 3.5 18:19:33 10° WSW 18:20:18 19° WSW 18:20:18 19° WSW
Cosmos 1943 Rocket 2.6 18:16:28 10° NNW 18:21:10 41° NNE 18:21:10 41° NNE
Cosmos 1092 Rocket 4.3 18:16:47 10° SSW 18:23:04 68° WNW 18:29:20 10° N
Cosmos 1980 4.3 18:19:10 10° SW 18:24:41 54° NW 18:27:59 24° NNE
STARLINK-60 4.4 18:21:51 10° SW 18:24:03 37° SW 18:24:03 37° SW
Cosmos 1441 Rocket 4.0 18:22:13 10° NNW 18:25:58 50° W 18:29:37 10° S
Cosmos 2297 3.9 18:23:16 10° NNW 18:28:58 72° WSW 18:34:36 10° SSE
CSL-04 Rocket 3.7 18:23:44 10° SSE 18:29:00 78° WSW 18:34:20 10° NNW
Cosmos 1140 Rocket 4.3 18:26:14 10° S 18:29:29 36° SSE 18:29:29 36° SSE
Cosmos 407 Rocket 3.3 18:26:21 10° SSW 18:31:30 72° ESE 18:31:32 72° ESE
Meteor 1-18 Rocket 4.1 18:29:03 10° S 18:34:47 80° E 18:36:16 51° NNE
Cosmos 1867 3.4 18:35:00 10° NW 18:40:31 83° NE 18:40:36 82° ENE
NOSS 3-1 (C) 4.1 18:35:32 10° NW 18:42:32 51° NE 18:43:14 50° NE
CZ-4 R/B 3.0 18:43:21 10° SSW 18:46:54 32° W 18:50:25 10° NNW
Lacrosse 5 rocket 2.8 18:44:01 10° W 18:47:04 33° NW 18:47:04 33° NW
COSMO-SKYMED 1 3.8 18:48:38 31° NNW 18:49:59 39° WNW 18:54:01 10° SW
USA 229 DEB 3.9 18:43:41 10° NW 18:50:43 55° NE 18:50:46 55° NE
USA 229 3.9 18:43:48 10° NW 18:50:49 55° NE 18:50:50 55° NE
S3M 3.8 18:46:42 10° N 18:52:59 88° E 18:59:09 10° S
NOSS 3-1 (A) 4.3 18:49:06 10° NW 18:55:38 46° NNE 18:55:38 46° NNE
SL-4 R/B 3.7 18:52:41 10° WNW 18:54:45 29° WNW 18:54:45 29° WNW
Meteor 2-9 Rocket 4.3 18:53:15 10° NNW 18:59:09 78° W 19:00:31 54° S
YAOGAN 1 4.1 18:55:17 10° SSW 18:59:14 35° W 19:03:14 10° NNW
Cosmos 1553 Rocket 4.5 19:00:18 10° NNW 19:06:32 60° W 19:12:48 10° S
SeaSat 1 4.4 19:25:00 21° NNW 19:25:00 21° NNW 19:26:37 10° NNW
Cosmos 2369 Rocket 3.5 19:18:44 10° NNW 19:21:43 33° NNW 19:21:43 33° NNW
SL-16 R/B 3.0 19:21:03 10° SW 19:25:57 48° WNW 19:25:57 48° WNW
ATLAS 2AS CENTAUR R/B 4.3 19:27:32 10° WNW 19:34:11 27° N 19:34:49 27° N
Cosmos 2237 Rocket 4.2 19:34:14 10° W 19:38:35 22° NW 19:39:32 21° NNW
USA 215 4.2 19:49:49 39° NNW 19:49:49 39° NNW 19:54:29 10° WNW
Cosmos 2344 4.2 19:39:49 10° NW 19:49:20 86° NE 19:50:07 80° ESE
Cosmos 1943 Rocket 4.2 20:00:26 10° NW 20:02:45 22° WNW 20:02:45 22° WNW
